Theta_e
312 309 309 310 309 309 311 312 314 316 318 318 315 316 320 320 322 327 324 317 317 316 315 315 316 318 318 317 319 320 318 320 320 320 320 320 319 320 319 321 321 319 322 320 313 310 311 311 311 311 311 311 310 310 310 310 309 309 309 310 310 312 314 315 315 315 315 315 315 314 315 317 319 320 320 320 320 320 321 321 321 321 322 322 322 321 321
314 311 311 311 310 311 312 312 313 315 316 317 316 316 317 316 318 324 323 318 318 317 314 314 316 317 315 315 315 316 316 318 318 319 320 319 318 319 318 318 318 319 319 315 310 309 310 309 309 310 310 310 310 309 310 309 309 309 309 309 309 309 309 310 310 309 310 311 310 311 312 313 314 316 316 317 318 318 318 319 320 320 321 321 322 322 322
317 313 312 312 311 312 313 312 314 317 317 317 317 315 316 316 317 321 322 320 321 319 314 313 314 314 313 313 312 313 314 314 315 316 317 318 318 318 319 317 316 317 317 313 309 309 309 309 308 309 309 309 309 308 308 308 308 308 309 309 309 309 309 309 308 308 308 309 309 309 310 310 310 311 312 313 315 316 317 318 319 320 320 320 320 320 321
318 313 311 313 313 312 314 315 318 318 316 316 316 314 315 315 315 318 320 319 320 318 313 313 315 314 314 313 312 311 311 311 311 311 312 315 316 317 317 316 315 315 316 313 310 310 310 309 309 308 308 309 309 308 307 307 307 307 307 308 308 308 308 308 308 308 308 309 308 309 309 309 310 310 310 311 312 314 315 316 318 319 320 320 319 319 320
316 312 311 315 313 313 317 320 317 314 314 316 316 316 316 315 313 315 314 312 314 314 312 313 315 314 313 313 311 310 310 310 310 309 310 313 315 315 315 316 316 315 313 311 309 309 309 309 308 308 308 309 309 308 308 307 307 308 308 307 307 308 308 308 308 308 308 308 308 309 309 309 309 309 309 309 310 311 312 313 314 315 317 319 319 319 319
313 313 315 317 314 314 319 319 314 313 315 317 316 315 314 313 313 313 311 308 310 311 310 310 311 311 311 310 309 309 310 310 309 309 311 313 313 313 312 313 314 312 309 309 309 308 308 307 307 307 308 309 308 308 308 308 308 308 308 307 308 308 308 308 308 308 308 308 308 309 309 309 309 309 309 309 309 310 310 311 311 312 313 315 316 317 318
314 314 314 315 313 314 316 313 312 315 316 315 316 313 309 310 311 311 309 308 308 308 309 308 309 310 309 307 307 307 308 309 309 309 310 311 312 312 311 312 312 309 309 309 309 308 308 308 307 307 307 308 308 308 308 308 308 307 307 307 307 307 307 308 308 308 308 308 309 309 309 310 309 308 308 308 309 309 310 310 310 310 311 311 312 312 314
316 313 312 314 312 311 313 312 311 314 314 315 319 315 308 307 309 309 308 308 307 307 307 307 309 310 310 307 306 306 306 307 308 309 310 311 311 311 311 312 311 308 308 309 308 308 308 308 308 306 306 307 307 307 307 307 307 307 307 307 307 307 307 308 308 307 307 308 308 309 309 310 309 310 309 309 309 309 310 310 311 311 311 311 311 311 311
317 313 312 315 312 309 314 315 311 312 313 314 318 315 308 306 307 307 307 307 307 307 307 306 308 310 311 309 307 306 306 306 306 307 308 309 309 309 308 308 309 308 308 308 307 307 308 307 307 306 305 306 307 307 307 307 307 307 307 307 307 306 307 307 307 307 307 307 308 308 308 309 309 309 310 310 310 310 310 310 311 310 311 312 312 313 312
316 312 311 312 309 309 313 313 310 310 311 310 313 314 309 306 306 306 307 306 307 307 307 306 308 309 310 309 308 306 305 306 307 306 305 305 306 307 306 306 306 306 307 307 307 307 306 306 305 305 305 306 307 307 306 306 306 306 306 307 306 306 306 306 307 307 306 307 307 307 307 308 308 309 309 309 310 310 310 310 310 311 311 312 312 312 312
312 311 310 309 309 309 311 310 308 308 310 311 312 313 309 306 305 305 306 305 306 306 306 307 307 308 309 308 307 306 305 305 306 306 305 303 304 304 305 304 303 304 305 305 306 305 305 304 304 304 305 306 306 306 306 306 306 306 306 306 306 306 306 307 307 307 306 307 306 307 307 307 307 307 308 308 309 309 309 310 310 311 311 312 311 311 311
311 312 310 309 310 309 308 307 306 306 308 312 313 311 307 304 304 304 304 305 306 306 306 307 307 307 307 306 305 305 305 303 303 304 304 304 303 304 304 303 303 303 303 304 304 304 304 304 304 304 304 304 305 306 306 306 306 306 306 306 306 307 307 307 307 307 306 306 306 306 307 307 307 308 308 309 310 310 310 310 311 311 311 311 311 310 310
311 311 310 308 309 308 305 305 306 305 307 310 310 307 305 303 304 304 303 304 305 305 306 306 305 305 305 304 304 304 304 303 303 302 302 303 303 303 303 303 303 303 303 303 303 303 303 303 303 303 303 303 304 304 305 305 306 306 306 306 306 306 305 306 306 306 306 307 306 306 306 307 307 308 308 309 310 310 310 310 310 311 310 310 309 309 309
309 309 309 309 308 307 306 306 305 305 309 310 307 305 304 304 304 304 304 304 303 303 304 305 304 305 305 304 304 304 304 304 303 302 301 302 302 302 303 303 303 303 302 303 303 303 303 303 302 302 303 303 303 303 304 304 304 304 304 304 304 304 304 304 305 305 305 306 306 306 306 306 307 307 307 308 309 309 310 309 310 310 309 309 308 307 307
309 308 307 308 308 306 306 306 304 305 308 308 306 304 303 304 303 302 302 302 301 301 302 302 303 304 304 304 304 304 304 305 303 301 300 301 301 301 302 302 302 302 302 302 302 303 303 302 302 302 302 302 302 302 303 304 304 304 304 304 304 304 304 304 304 304 305 305 305 306 306 306 307 307 307 307 308 309 309 309 309 309 308 307 307 306 305
309 307 307 310 308 304 303 304 303 303 306 306 304 302 302 302 301 300 300 301 301 301 301 301 301 302 302 303 303 302 302 303 301 299 299 299 300 300 300 301 301 302 302 302 302 302 302 302 302 302 302 302 302 302 303 303 304 304 304 304 304 304 304 304 305 305 305 305 306 306 306 306 307 307 307 307 307 308 309 308 309 308 307 306 306 305 303
305 304 305 307 305 301 301 302 302 302 302 303 302 301 300 300 300 299 299 300 300 300 300 300 300 301 301 301 301 301 301 301 300 299 299 299 299 299 299 300 300 300 301 301 301 301 301 301 302 302 302 302 302 303 303 303 303 303 304 304 304 304 304 304 305 305 305 305 305 305 304 305 305 305 306 305 305 306 307 308 308 307 305 305 305 303 302
304 303 301 300 299 299 300 301 301 301 300 300 299 299 299 300 299 299 300 299 299 299 300 299 299 299 299 300 300 300 300 300 298 297 298 298 299 299 299 299 299 300 300 300 300 301 301 301 301 302 302 302 302 302 302 302 302 302 302 303 303 304 304 304 304 304 304 304 304 304 304 304 304 304 305 305 306 307 308 309 309 307 305 304 303 302 301
304 303 299 297 298 300 300 300 300 300 299 298 299 299 299 299 299 299 299 299 299 299 299 299 299 299 299 300 300 300 300 300 298 297 297 298 298 299 299 299 299 299 299 300 300 300 301 301 301 301 302 302 302 302 302 302 302 302 303 303 304 304 304 304 304 304 304 304 304 304 304 304 304 304 305 306 307 307 308 309 308 306 305 304 302 300 299
302 301 298 297 299 299 299 299 299 299 298 299 299 299 300 300 300 299 299 299 300 300 300 300 300 300 300 300 300 300 300 300 298 297 298 299 299 299 299 299 300 299 299 300 300 300 300 301 301 301 301 301 301 301 302 302 302 303 303 304 304 304 304 304 303 303 303 303 303 303 303 303 304 304 305 306 306 307 307 308 308 307 305 304 302 300 299
302 300 298 298 299 299 299 298 299 299 299 299 299 299 300 300 300 300 300 299 299 300 300 300 300 300 300 299 299 300 300 299 298 298 299 299 299 299 299 299 300 300 300 299 300 300 300 300 301 301 301 301 301 301 302 302 303 303 304 304 304 304 303 303 303 303 302 303 303 303 303 303 303 304 305 306 306 307 307 307 307 307 306 304 302 301 300
301 299 298 299 300 300 299 299 299 299 299 299 299 300 300 300 300 301 300 299 299 298 298 298 299 299 299 298 298 299 299 299 298 298 298 298 299 299 299 299 299 300 299 299 299 300 301 300 300 301 301 302 302 302 303 303 303 303 303 303 303 302 302 302 302 302 302 302 302 302 303 303 303 303 304 305 306 306 306 307 307 306 305 303 302 301 299
298 298 299 299 299 299 299 299 299 299 299 300 300 299 300 300 299 299 299 299 299 298 297 297 297 298 298 298 298 298 298 298 298 298 298 299 299 299 299 300 300 299 300 300 300 300 300 300 300 301 301 302 303 303 303 303 303 303 302 302 301 301 300 300 300 300 300 300 301 301 302 303 303 302 302 302 303 304 305 305 305 304 303 302 300 300 298
298 299 300 300 299 299 299 300 300 299 299 299 299 299 299 299 298 297 298 298 298 298 297 297 298 298 298 298 298 298 298 298 298 299 299 299 299 299 300 300 300 299 300 300 301 300 300 300 300 301 301 302 302 303 303 302 302 302 301 300 300 299 299 299 299 299 299 299 299 299 301 301 301 302 301 299 298 298 300 301 301 300 300 299 298 297 297
299 299 299 299 299 299 300 299 299 298 298 298 298 299 298 298 297 297 297 297 297 297 297 296 297 297 297 297 297 297 296 297 297 297 298 299 299 299 300 300 299 299 300 300 300 300 301 300 300 301 301 302 302 302 302 301 301 300 300 299 298 298 298 298 298 298 298 298 299 299 300 299 298 299 299 297 296 295 296 297 298 297 297 297 297 296 296
299 299 299 299 299 299 299 299 299 298 297 297 297 298 297 297 296 296 296 295 295 295 295 295 295 295 295 295 295 295 295 295 295 295 296 297 297 298 298 298 298 298 299 299 300 300 300 300 300 301 302 302 301 301 301 300 299 299 298 297 297 297 297 297 297 297 297 298 298 298 297 296 295 295 294 294 294 293 293 293 294 294 294 294 294 294 293
299 300 299 299 299 299 299 299 298 298 297 297 297 296 296 295 295 295 294 294 294 294 294 294 293 293 293 293 293 293 293 293 293 293 293 294 294 295 296 296 296 296 297 298 298 299 299 299 299 300 301 301 301 300 300 299 298 297 297 296 296 296 296 296 296 295 295 295 296 295 294 294 293 293 292 293 293 292 292 291 291 291 291 291 292 292 293
300 299 299 299 298 298 298 298 298 297 296 296 296 295 295 294 294 293 293 293 293 293 292 292 292 292 292 292 292 291 291 291 291 291 291 292 293 294 295 295 295 295 295 296 296 297 298 298 298 299 301 301 300 299 298 297 297 296 296 296 295 295 295 295 295 295 294 294 294 294 293 293 293 292 292 292 292 292 291 291 291 291 291 291 291 291 292
299 299 299 299 298 297 298 298 297 297 296 295 294 294 293 293 293 292 292 292 292 291 291 291 291 291 291 290 290 290 290 290 290 290 290 291 292 293 293 293 293 293 293 294 294 296 297 297 298 299 300 300 300 299 298 297 296 296 296 296 295 295 295 294 294 294 294 294 294 293 293 293 293 293 293 293 292 292 292 292 292 292 291 291 291 291 291
299 299 300 299 298 297 298 298 298 297 295 294 294 294 293 293 292 291 291 291 291 291 290 290 290 290 290 290 290 290 290 290 290 290 290 290 291 291 291 291 291 291 292 292 293 293 294 295 296 298 300 300 299 298 298 297 296 297 297 296 295 295 295 295 295 295 294 294 294 294 294 294 294 294 294 294 294 294 293 293 292 292 291 292 292 293 292
299 299 299 299 298 298 297 297 297 296 295 294 293 293 292 292 291 291 291 291 291 290 290 290 290 290 290 290 289 289 289 290 290 289 289 289 290 290 290 290 290 290 291 291 291 291 292 293 294 297 299 300 299 298 297 297 296 297 297 297 296 296 295 295 296 295 294 294 294 295 295 295 295 294 294 294 294 294 293 293 292 292 292 292 293 293 293
298 299 298 298 298 297 296 296 296 295 294 293 293 292 292 292 291 291 291 291 290 290 290 289 289 289 289 289 289 289 289 289 289 288 288 288 289 289 289 289 289 290 290 290 290 290 290 291 293 297 299 300 298 298 297 297 297 297 297 297 297 296 296 296 296 296 295 295 295 295 296 296 296 295 295 295 295 294 294 294 293 293 292 292 293 293 294
298 298 297 297 297 296 295 295 295 295 294 293 293 292 292 292 291 291 291 291 290 290 289 289 289 289 289 289 288 288 288 288 288 287 287 287 288 288 288 289 289 289 290 290 290 290 290 291 293 296 299 299 298 298 297 297 297 297 297 297 297 297 297 297 297 296 295 295 296 296 296 297 297 297 296 296 296 296 295 295 295 294 294 294 294 294 294
298 297 297 297 296 295 295 295 295 295 294 293 293 292 292 292 291 291 290 290 290 289 289 289 289 289 289 289 288 288 288 288 288 287 287 287 287 287 288 288 289 289 289 290 291 292 292 292 293 297 299 298 298 298 297 297 298 298 297 297 297 297 297 297 297 297 296 296 297 298 297 297 297 297 297 297 297 296 296 296 296 295 294 294 294 294 294
297 296 296 296 296 295 295 295 294 294 294 293 293 292 292 292 291 290 290 290 290 289 289 289 289 289 289 289 288 287 287 287 287 287 287 287 287 287 287 288 288 289 289 290 291 293 294 294 295 297 298 298 297 297 297 297 298 298 297 297 297 297 297 297 297 297 298 298 298 298 297 297 297 297 297 297 297 297 296 296 295 294 294 294 294 294 294
296 296 295 295 295 295 295 294 294 294 293 293 292 292 292 291 291 291 290 290 290 289 289 289 289 289 289 288 287 287 287 287 287 287 287 287 286 287 287 287 288 288 289 289 291 293 294 296 297 298 298 297 297 297 297 298 298 297 297 296 296 297 297 297 298 298 298 298 298 297 297 297 297 296 297 297 296 296 296 295 295 294 294 294 294 294 294
295 295 295 295 295 295 294 294 294 294 293 293 293 292 292 291 291 291 291 291 290 289 289 289 289 290 290 289 287 287 287 287 287 287 287 287 286 286 287 287 287 288 288 288 289 291 294 295 296 296 296 296 297 297 298 298 297 297 297 297 297 297 297 297 297 297 297 297 297 296 296 296 296 296 296 295 295 295 295 294 294 294 294 294 294 293 293
295 295 295 295 295 294 294 294 294 294 294 293 293 293 292 292 292 291 291 291 290 290 289 289 290 289 290 289 288 287 286 286 286 286 287 287 286 286 286 286 287 287 287 287 289 291 292 294 294 294 295 296 296 297 297 297 297 297 297 297 297 297 297 297 297 297 296 296 296 296 295 295 295 295 295 295 295 295 294 294 294 293 293 293 293 292 292
295 295 295 295 295 294 294 294 294 294 293 293 293 293 292 292 291 291 290 290 290 290 290 290 289 289 289 289 288 287 286 286 286 286 286 286 286 286 286 286 287 287 287 288 289 291 291 292 293 293 294 295 296 297 297 297 297 297 297 297 297 297 297 297 296 296 296 296 295 295 295 294 294 294 294 294 294 294 294 293 293 292 292 292 291 291 291
295 295 295 295 294 294 294 294 293 293 293 293 292 292 291 291 291 290 290 290 290 291 291 290 289 288 288 288 288 287 286 285 285 285 285 286 286 286 286 286 287 287 288 288 289 290 291 292 292 293 293 294 295 295 296 296 296 297 297 297 296 296 296 295 295 295 294 294 294 294 294 294 294 293 293 293 293 292 292 292 291 291 290 290 290 290 289
295 295 295 294 294 294 294 293 293 292 292 292 292 291 291 290 290 290 289 290 290 290 291 290 289 288 288 287 287 287 287 286 285 284 284 285 285 285 285 285 286 287 288 288 289 290 291 292 292 292 293 293 293 294 294 295 296 296 296 296 296 295 295 295 294 294 294 294 294 293 293 293 292 292 292 291 291 291 290 290 290 289 289 289 288 288 288
295 295 295 295 295 295 294 293 292 292 292 292 291 291 290 290 290 289 289 289 289 289 290 290 290 289 288 287 286 286 286 286 286 285 284 284 284 284 284 285 285 286 287 288 289 290 290 291 292 292 292 292 293 293 294 294 294 294 294 294 294 294 294 294 294 293 293 293 293 292 292 291 291 291 290 290 289 289 289 289 288 288 287 287 287 287 287
295 295 295 295 295 295 295 294 292 292 291 291 291 291 291 290 290 290 289 289 289 289 289 289 290 289 288 287 286 285 285 285 286 285 284 284 284 284 284 285 285 286 286 287 288 289 290 291 291 291 291 292 292 293 293 293 293 293 293 293 293 293 293 293 292 292 292 291 291 291 290 290 289 289 289 288 288 288 288 287 287 287 286 286 286 286 285
295 295 295 295 295 295 295 294 293 292 291 291 291 291 291 291 290 290 290 289 289 289 288 289 289 289 289 287 287 285 285 285 285 285 285 284 284 284 284 285 285 286 286 287 288 288 289 290 290 291 291 291 291 291 292 292 292 292 292 292 292 292 291 291 291 291 290 290 289 289 289 289 288 288 288 287 287 287 287 286 286 286 285 285 285 285 284
295 295 295 295 295 295 295 295 294 292 292 291 291 291 291 291 291 290 290 290 289 289 288 288 288 289 288 288 287 286 285 285 285 285 285 285 284 284 284 285 285 286 286 287 287 288 288 289 289 290 290 290 290 290 290 290 290 290 290 290 290 290 290 290 289 289 289 289 288 288 288 287 287 287 287 287 286 286 286 286 285 285 285 285 284 284 283
296 295 295 296 296 295 295 295 294 293 292 291 291 291 291 292 291 291 290 290 289 289 288 288 287 288 288 288 287 286 286 285 285 285 285 285 284 284 285 285 285 286 286 286 287 287 287 288 288 289 289 289 289 289 289 289 289 289 289 289 289 289 289 289 288 288 288 288 287 287 287 287 287 287 286 286 286 286 286 286 286 285 285 285 284 284 283
296 296 295 295 296 295 295 296 295 294 293 292 291 291 291 291 291 291 290 290 290 289 288 288 287 287 288 288 287 287 286 286 285 285 285 285 285 285 285 285 285 285 285 285 286 286 286 287 287 287 287 288 288 288 288 288 288 288 288 288 288 288 288 288 288 288 287 287 287 287 286 286 286 286 286 286 286 286 286 286 285 285 285 285 285 284 284
296 296 296 295 295 295 295 295 296 295 294 293 292 292 291 291 291 291 291 291 291 290 289 288 288 287 287 286 286 286 286 286 285 285 285 285 285 285 285 285 285 285 284 285 285 285 286 286 286 286 286 286 286 286 286 286 286 287 287 287 287 287 287 287 287 287 287 287 286 286 286 286 286 286 286 286 285 285 285 285 285 284 284 284 285 284 284
296 296 296 295 295 295 296 296 296 296 295 294 293 292 291 292 292 291 291 291 291 291 290 289 288 288 287 287 286 286 286 286 285 285 285 285 285 285 286 286 285 285 284 284 285 285 285 285 285 285 285 285 285 285 285 285 285 285 286 286 286 286 286 286 286 286 286 286 286 286 286 286 286 286 286 285 284 284 284 284 284 284 284 284 284 284 283
297 296 295 295 294 295 295 296 296 296 295 295 294 292 291 292 292 291 291 291 291 291 290 289 289 288 287 287 287 287 286 286 286 286 285 285 285 285 285 285 286 285 285 284 284 284 285 284 284 284 284 284 284 284 284 284 285 285 285 285 285 285 285 285 285 286 286 286 286 285 285 285 285 285 285 285 284 284 284 284 284 283 283 283 283 283 282
297 296 296 295 295 295 295 295 296 296 296 296 295 293 291 291 292 291 291 291 291 290 290 289 288 288 288 288 287 287 286 286 286 286 286 285 285 285 285 285 285 285 285 284 284 284 284 284 284 284 284 284 284 284 284 284 284 284 284 284 284 284 284 284 284 284 285 285 285 285 284 284 284 284 284 284 284 283 283 283 283 283 283 282 282 282 282
296 296 296 296 296 296 296 296 296 296 296 296 295 294 292 291 291 291 291 291 291 291 290 288 288 287 287 287 287 286 286 286 286 286 286 285 284 285 285 285 284 284 285 284 284 284 284 284 284 284 284 284 284 284 283 283 283 284 284 284 284 284 284 284 284 283 284 284 284 284 283 283 283 283 283 283 283 283 283 283 282 282 282 282 282 281 281
Wind_Speed
5 5 6 7 7 7 6 5 5 5 6 7 5 2 4 2 4 5 5 1 0 3 1 5 5 5 5 5 5 6 7 9 8 7 7 7 7 8 8 8 7 7 6 6 9 12 12 14 15 15 14 13 13 13 10 8 8 8 8 9 9 8 9 9 8 7 7 7 5 3 3 4 5 5 5 5 6 8 10 11 13 15 16 17 18 18 16
5 5 6 7 7 7 7 7 6 4 6 7 6 4 2 2 2 4 2 3 1 3 2 5 4 5 6 6 5 3 1 3 6 8 8 9 9 8 8 8 8 7 7 7 10 14 15 15 14 13 12 12 12 11 9 7 7 6 6 6 6 6 6 6 5 4 4 4 3 2 2 2 2 3 3 3 4 5 6 7 8 10 12 14 17 19 18
5 5 6 7 7 7 6 7 8 6 6 6 5 5 5 4 3 2 6 7 3 3 4 7 7 8 8 8 9 9 6 5 1 2 4 7 9 10 8 8 8 9 8 7 9 12 13 11 11 11 10 10 9 8 7 6 5 5 5 4 3 3 4 4 2 2 2 2 1 0 0 1 1 1 2 3 5 6 7 9 9 8 8 9 10 12 14
3 4 6 6 7 8 7 7 6 5 5 4 2 3 4 4 4 6 9 6 5 4 5 8 7 9 9 7 8 9 8 8 8 7 7 6 4 9 12 11 10 10 8 8 9 11 10 7 6 6 6 8 8 5 4 3 3 3 4 4 3 2 2 2 2 3 3 2 2 2 2 2 3 4 4 4 4 4 5 7 8 10 10 10 9 9 10
2 3 4 6 7 8 5 4 3 1 2 3 4 4 5 6 5 4 5 2 5 4 6 7 7 8 8 7 8 8 8 9 9 9 10 9 5 3 6 8 10 9 7 10 13 15 13 10 9 8 7 9 8 4 2 1 1 1 2 2 1 0 1 2 2 3 3 2 2 3 2 2 3 5 5 6 6 6 6 6 6 7 9 10 12 12 12
2 1 4 6 5 2 4 3 4 2 2 7 6 4 6 7 5 4 3 3 6 8 8 8 8 7 7 8 9 8 7 7 9 10 10 9 8 9 8 7 9 10 11 13 15 17 15 12 10 8 5 5 4 1 2 3 1 1 2 3 3 2 1 0 1 2 3 3 3 2 2 2 3 4 5 6 7 8 9 9 9 9 9 9 10 12 14
2 1 6 5 2 5 2 5 10 6 3 8 8 6 10 11 7 6 7 8 9 9 8 8 7 6 7 10 12 11 10 7 7 9 11 10 8 9 10 9 8 9 12 13 13 15 13 10 9 10 6 1 2 1 1 1 1 2 5 5 4 2 2 1 1 2 3 4 4 3 2 3 4 5 6 7 8 8 9 10 11 12 13 13 13 13 14
2 2 3 2 4 3 4 9 10 8 6 6 6 8 11 12 9 8 8 7 8 9 9 7 6 6 6 9 10 12 11 10 8 8 8 9 8 7 7 8 9 11 12 10 10 11 9 5 6 9 9 5 3 4 3 4 4 5 6 5 4 4 4 3 3 4 5 4 3 2 2 3 5 6 7 8 9 9 9 9 10 11 13 14 15 16 16
3 3 2 2 2 6 6 5 6 5 5 4 3 5 6 9 9 7 6 7 9 9 8 8 7 6 6 7 8 9 10 9 9 8 8 8 8 8 9 8 10 12 10 6 7 9 6 4 4 5 7 6 6 6 5 7 9 8 7 7 6 6 6 5 4 5 5 5 5 4 4 5 6 7 8 8 9 9 9 10 11 12 13 13 14 15 16
3 4 1 2 1 2 3 3 5 5 5 5 3 4 3 7 9 8 7 8 9 8 8 9 8 6 7 6 5 7 9 8 8 9 10 12 12 10 13 15 12 9 9 6 5 8 8 6 5 6 5 4 5 6 8 10 11 11 10 9 7 7 7 7 6 7 7 7 7 7 6 6 7 7 8 8 8 9 9 10 11 11 13 13 13 13 14
3 4 2 2 2 2 3 5 8 7 6 6 5 4 2 6 8 7 8 8 8 8 7 8 7 6 6 4 4 5 7 8 7 8 8 12 16 14 13 16 17 14 10 6 4 6 7 4 5 6 6 6 5 6 9 11 11 12 12 12 11 10 10 9 9 9 9 9 9 10 10 10 10 11 13 13 12 11 11 11 12 12 12 11 10 10 10
3 4 3 2 2 1 4 6 7 8 8 7 5 3 1 6 7 7 7 7 7 7 6 6 6 5 4 3 4 5 7 8 9 10 9 10 13 15 14 14 14 14 12 10 7 6 4 4 6 8 9 9 8 8 10 11 12 13 14 13 12 12 11 11 11 11 11 11 11 11 11 11 11 12 13 13 12 11 11 11 11 11 10 7 5 5 4
2 3 2 1 1 1 4 6 7 8 8 6 5 2 3 5 6 6 7 6 6 6 6 5 4 3 2 3 4 6 8 9 9 12 14 14 13 14 14 13 13 14 14 12 10 9 8 6 7 9 11 13 13 12 11 10 11 12 12 12 13 14 14 14 14 13 13 12 11 11 11 11 11 11 11 10 10 9 8 8 8 8 6 5 4 3 2
2 1 2 2 1 2 4 5 6 6 4 2 1 2 4 4 4 6 6 6 6 7 6 5 4 4 5 5 6 7 7 7 7 9 13 15 15 15 15 14 13 14 15 16 15 13 10 7 9 12 13 13 14 14 13 13 13 14 14 15 16 16 15 15 15 15 14 13 14 15 16 15 15 15 14 14 13 11 9 8 7 5 5 5 4 4 4
2 2 3 2 1 2 2 3 5 4 2 2 3 2 3 3 5 6 5 5 7 7 6 6 6 6 7 6 6 7 7 7 8 10 12 13 13 15 17 15 12 11 14 18 19 16 12 12 16 18 16 14 14 15 15 14 13 14 15 14 14 13 14 16 17 17 17 17 17 17 17 16 16 16 16 16 16 16 15 12 8 8 9 8 7 6 7
2 3 2 1 2 1 2 1 1 1 2 3 2 0 2 3 4 5 5 5 6 6 6 7 7 7 7 7 7 7 7 7 8 10 13 14 14 16 17 17 17 15 15 17 18 18 17 17 17 18 18 16 15 15 14 11 9 10 10 10 11 12 14 16 16 14 12 12 12 11 11 12 11 12 14 15 15 16 16 15 12 12 13 12 10 10 11
2 2 2 1 2 3 3 1 0 1 2 3 4 5 4 4 4 5 4 5 6 7 6 7 6 6 6 7 7 7 7 7 8 10 13 16 17 18 19 20 21 19 17 16 18 20 21 17 13 12 12 10 8 9 10 10 10 10 11 12 13 13 13 13 12 11 11 13 14 14 13 13 13 14 16 17 17 16 15 16 15 16 17 15 13 14 15
2 3 5 7 6 3 3 4 4 5 6 7 7 7 5 4 5 5 5 5 6 7 7 6 6 6 7 7 7 7 7 7 9 11 14 15 18 19 19 21 22 21 19 18 19 21 22 17 12 10 7 4 4 8 10 12 14 16 16 16 14 12 11 11 12 13 15 16 17 17 15 15 15 15 15 16 15 11 10 13 15 17 18 16 15 16 17
3 3 6 9 6 4 4 5 5 7 8 8 7 6 4 5 5 5 6 6 6 7 7 6 6 7 7 7 7 7 7 7 9 11 12 14 17 19 20 21 23 23 20 18 15 12 11 10 9 9 9 8 9 11 13 14 16 17 15 13 11 11 11 12 14 15 15 15 15 15 14 13 13 13 12 11 10 8 8 11 15 18 18 18 18 19 19
1 0 5 8 6 5 6 7 6 7 7 7 6 5 5 5 5 5 7 7 6 6 6 6 7 7 7 7 7 7 7 7 8 10 13 14 16 19 20 22 22 22 21 19 13 7 7 8 9 11 13 13 14 14 15 16 16 14 10 9 10 11 11 11 12 13 14 15 15 15 15 14 13 12 11 11 12 11 11 11 14 17 19 20 20 21 21
2 3 7 9 7 6 8 9 7 7 7 7 7 7 7 7 6 6 7 7 7 6 6 6 6 7 7 7 7 8 7 7 8 12 15 16 17 18 20 21 21 20 20 19 15 11 10 10 11 12 13 14 16 16 15 15 14 11 9 9 10 11 11 11 12 12 13 14 14 13 13 12 11 11 12 12 13 13 13 13 14 16 19 21 20 19 20
3 4 6 7 4 3 5 7 8 8 7 7 7 7 7 7 6 5 6 7 8 8 8 7 6 6 7 8 9 9 8 9 12 14 15 16 17 18 19 21 21 22 22 22 18 14 13 13 13 14 13 12 11 10 9 8 8 8 8 8 9 10 11 13 15 16 17 17 16 13 11 10 11 10 9 10 11 11 11 12 14 15 16 16 17 19 20
0 3 5 4 2 3 5 5 7 7 5 6 6 6 6 5 6 6 6 6 6 7 9 9 8 6 7 10 11 9 9 12 14 14 14 15 15 17 18 19 20 22 23 20 15 11 11 12 14 14 12 9 6 3 3 5 6 6 6 7 8 10 12 14 16 18 20 20 19 15 12 12 13 12 10 9 9 9 9 11 13 13 13 14 17 20 21
1 3 3 3 3 3 4 5 5 5 5 6 5 5 6 5 6 8 7 6 7 6 6 8 10 9 9 11 11 9 9 13 15 15 16 16 16 17 18 17 17 17 17 14 11 9 8 8 9 10 9 7 4 3 3 5 5 5 6 7 7 8 10 12 15 17 19 20 19 16 14 15 16 16 15 14 14 13 12 13 14 15 16 18 18 18 18
1 2 2 2 3 4 5 5 4 5 8 8 5 5 6 7 9 10 9 8 9 8 6 7 11 12 11 12 12 11 11 13 15 16 16 14 14 15 14 13 13 13 11 10 9 8 6 5 5 5 5 4 5 5 5 4 5 4 4 4 4 3 4 6 8 11 15 17 17 15 16 18 18 18 20 22 22 21 20 19 19 19 18 18 18 17 17
2 2 4 4 4 4 5 5 4 6 9 9 6 5 8 10 11 12 12 11 12 13 11 10 12 14 14 14 15 14 14 15 17 18 16 14 13 12 11 11 13 14 12 10 8 7 6 6 6 4 2 4 5 5 5 3 2 2 1 2 2 1 3 4 4 2 2 5 7 10 15 18 19 19 21 24 26 26 24 23 22 22 22 21 19 19 19
4 5 5 4 4 4 4 4 4 6 7 8 7 7 10 13 13 12 13 13 14 15 14 14 15 15 16 16 15 15 15 16 17 17 16 16 16 16 14 13 14 14 13 12 10 8 7 5 5 5 3 7 7 6 5 4 4 5 6 6 6 6 6 8 10 10 10 11 14 17 19 20 22 24 24 24 25 26 26 25 24 24 25 24 21 20 20
5 5 4 2 3 5 4 4 6 6 7 10 11 11 12 12 11 9 9 11 13 14 13 14 15 15 14 15 15 15 15 15 15 16 17 17 17 16 15 14 13 13 14 14 12 11 10 8 7 6 5 9 10 8 7 7 9 10 9 8 9 10 10 12 13 14 15 17 18 20 21 22 24 25 26 26 26 26 26 26 25 23 23 22 20 19 18
4 5 4 3 4 4 4 5 6 5 7 10 12 11 10 9 7 7 8 9 10 10 11 13 14 13 13 13 14 13 14 15 15 16 17 16 15 14 14 14 14 14 15 14 13 12 11 10 9 7 8 12 12 11 10 11 12 12 10 9 11 12 12 14 15 15 17 19 20 20 21 22 23 24 24 25 26 26 26 25 24 22 21 20 18 17 16
4 4 4 4 4 5 5 5 5 4 6 8 8 7 7 7 6 6 7 8 8 9 10 12 13 13 13 13 13 13 14 15 16 16 14 13 14 14 14 14 14 13 13 13 13 13 11 10 9 7 11 15 14 13 14 15 14 12 10 10 11 11 12 14 13 14 16 19 19 19 19 19 19 19 20 22 23 23 23 23 22 22 21 19 18 17 15
4 5 5 5 5 5 5 4 4 4 5 6 5 5 6 7 6 6 6 7 7 9 11 13 13 13 14 13 13 14 15 14 13 13 12 12 12 12 11 11 11 11 11 13 15 16 15 14 11 7 13 19 17 16 18 17 14 11 10 10 9 9 10 10 9 11 16 19 18 17 17 16 15 17 19 20 20 20 19 18 18 18 17 16 15 14 12
4 5 4 4 4 4 4 4 3 3 4 5 4 5 6 6 6 6 6 6 7 9 11 11 12 13 15 14 14 15 14 12 11 12 12 12 12 10 9 9 9 10 12 13 15 16 17 18 14 9 16 22 21 20 19 17 14 12 10 9 10 10 8 7 7 11 16 17 14 12 12 11 12 14 16 16 15 16 17 17 15 15 14 13 11 10 10
3 4 3 3 3 3 3 3 2 3 4 4 4 5 6 6 6 6 6 6 7 8 9 10 12 13 15 15 15 15 14 11 10 12 14 14 14 13 12 10 8 9 10 11 13 15 17 18 15 11 17 24 23 21 19 17 14 12 10 10 11 10 7 6 8 11 12 10 7 6 7 7 8 10 10 10 11 16 19 19 17 16 14 11 10 10 9
1 1 1 2 2 2 1 2 2 3 4 4 5 6 6 6 6 6 7 6 6 7 9 11 13 13 13 15 15 14 12 10 8 11 14 16 16 16 16 13 9 8 9 8 6 10 14 15 13 13 20 25 23 20 19 17 13 11 12 12 11 9 9 10 10 10 10 8 9 12 14 13 13 15 16 15 17 21 23 22 20 19 17 14 13 12 11
3 3 5 4 2 2 3 3 4 4 4 3 3 3 4 4 5 6 6 6 6 8 10 13 15 12 10 12 14 14 13 12 12 13 15 18 18 17 16 17 15 13 14 17 14 5 6 10 12 18 24 25 22 19 17 14 13 14 15 14 11 9 11 12 11 11 12 13 14 16 18 18 20 22 23 22 23 24 24 22 20 20 18 17 17 16 15
7 5 4 4 3 5 6 6 6 6 5 3 1 0 2 3 5 6 7 7 8 10 12 15 16 12 6 7 12 15 15 15 15 16 16 18 19 18 17 20 20 18 20 24 23 18 15 17 21 25 26 23 20 17 15 14 15 16 16 14 11 10 11 11 12 13 14 14 14 16 18 19 21 22 24 24 24 23 22 21 18 16 16 16 16 17 17
6 3 3 4 5 7 7 6 4 4 5 5 4 3 3 4 6 8 9 9 9 10 12 15 16 13 7 4 9 15 18 17 16 16 16 17 19 19 21 23 24 23 24 24 22 22 25 26 25 24 23 20 17 16 15 16 18 19 17 14 11 10 10 11 13 15 15 15 16 16 17 17 19 19 20 22 22 21 20 19 18 17 18 18 17 17 17
4 3 4 5 7 8 6 3 1 1 2 4 6 6 5 6 7 8 9 9 8 8 11 13 14 14 10 6 7 14 19 20 18 17 17 18 18 19 22 24 25 24 23 22 20 22 26 26 24 23 21 19 17 17 17 19 20 19 16 11 9 9 11 13 15 16 16 16 16 16 16 17 18 19 19 19 20 19 19 18 18 18 19 18 17 16 16
4 4 6 7 7 6 3 1 3 4 6 6 6 5 5 5 5 5 7 10 9 8 10 12 13 14 13 11 9 11 16 20 20 18 17 18 18 18 21 26 27 25 23 23 23 24 24 23 25 25 22 20 19 18 18 18 18 17 15 12 11 13 15 16 16 17 17 17 18 18 18 18 18 18 18 18 18 18 19 19 19 18 17 16 16 16 15
6 6 7 6 4 4 4 4 4 5 7 6 3 1 2 4 5 5 8 11 12 11 11 11 12 13 14 14 12 11 14 18 20 18 17 17 18 18 20 25 28 28 26 26 27 25 23 23 24 25 25 24 22 20 19 19 19 19 19 19 19 20 19 18 18 18 18 18 18 18 17 18 18 18 18 18 18 19 19 20 20 20 19 17 16 15 14
8 9 9 7 6 6 5 5 6 6 6 4 1 3 4 5 6 7 8 10 11 12 12 11 10 12 14 16 14 13 13 16 19 21 20 19 19 18 17 20 24 27 27 26 26 25 24 24 24 23 23 24 23 22 22 22 23 23 23 22 22 22 21 21 20 19 18 18 18 17 17 19 20 20 19 19 19 19 19 19 19 19 18 16 15 13 12
9 10 10 8 6 6 6 6 6 5 4 2 1 3 4 4 6 7 8 8 9 11 13 13 10 11 13 16 17 16 14 14 17 20 22 21 19 16 15 16 20 22 23 24 24 24 24 25 25 24 23 22 21 22 23 25 25 25 24 23 22 22 22 22 21 20 19 19 19 18 18 18 19 19 19 18 18 18 17 17 17 16 15 14 13 12 10
10 10 9 8 7 7 8 8 8 6 3 2 3 2 2 3 5 5 6 7 9 10 12 14 13 11 12 15 17 17 16 15 14 15 17 19 20 18 15 15 17 19 20 22 25 24 23 22 23 23 23 23 23 23 23 24 25 25 24 23 22 22 22 22 21 20 19 20 20 20 19 19 19 19 18 18 17 16 16 15 15 14 13 13 12 11 10
10 10 9 10 10 10 10 9 9 8 5 3 2 1 1 2 4 4 4 6 8 9 10 12 13 11 11 12 14 16 16 16 14 13 12 15 18 19 18 17 18 20 22 23 25 25 24 22 21 20 20 21 22 23 24 24 24 23 22 22 22 22 22 22 21 19 19 19 19 19 18 18 18 17 17 17 16 15 14 13 12 11 11 10 10 10 9
11 11 10 10 10 9 9 9 6 6 6 4 3 2 2 1 2 3 4 4 6 8 9 10 12 12 10 11 13 14 16 16 16 15 14 12 13 15 17 18 19 21 23 23 24 24 24 22 21 20 20 19 19 21 22 22 22 22 21 21 20 21 22 22 21 20 19 18 18 17 17 16 16 15 15 15 15 14 13 12 12 12 12 11 10 9 8
12 13 13 11 8 7 8 10 7 5 7 8 7 6 4 3 3 3 3 3 4 6 7 8 10 11 11 10 11 12 14 15 16 17 16 14 12 13 16 18 19 19 21 22 23 23 22 20 19 19 19 19 19 20 21 21 22 22 22 21 20 20 19 19 19 19 19 18 17 17 17 16 15 15 14 14 13 12 12 12 13 12 12 12 12 11 10
11 12 12 10 7 7 9 11 10 7 8 9 9 9 8 6 5 4 1 1 4 5 6 8 9 10 10 10 10 11 12 12 12 13 14 14 12 11 13 16 18 19 19 20 21 21 20 19 18 17 17 17 18 19 19 20 21 23 23 23 22 20 19 18 18 18 19 18 16 15 14 14 14 13 13 13 12 11 11 12 12 12 11 12 13 14 13
12 11 11 10 9 10 12 12 11 10 11 10 8 12 13 10 7 5 4 4 5 7 6 7 8 8 9 9 10 10 11 11 11 10 10 12 13 11 10 12 15 17 18 18 19 19 18 17 18 17 17 17 18 18 18 18 19 19 20 21 21 20 20 18 17 16 16 16 15 14 14 13 13 12 11 11 12 13 14 14 13 12 11 12 13 13 14
15 13 13 13 12 12 13 13 11 12 14 14 10 13 15 11 8 9 8 7 7 10 10 8 8 9 9 10 10 10 10 10 11 10 9 10 13 14 12 10 12 13 15 15 16 16 16 16 17 17 17 18 18 18 18 18 18 18 18 18 17 17 18 18 17 16 15 14 13 13 12 12 12 11 10 10 11 12 13 13 13 12 11 11 11 11 12
15 14 15 16 16 16 15 13 13 15 17 16 10 13 17 13 10 11 10 7 7 10 11 10 10 11 10 9 9 9 8 9 10 10 9 10 11 13 13 11 11 11 12 14 14 14 14 15 16 16 17 17 17 16 16 16 16 15 15 14 14 14 14 16 17 17 15 14 13 12 10 10 11 11 11 10 10 11 11 12 12 12 11 11 11 11 10
16 16 17 18 19 20 19 17 17 18 17 14 10 10 15 13 11 13 13 10 7 10 13 13 12 12 11 9 9 9 9 8 7 7 9 10 11 11 12 12 11 11 12 13 14 13 13 14 14 15 15 15 15 15 15 15 14 13 12 12 12 12 13 14 14 14 13 12 11 11 11 11 12 11 11 10 11 12 13 12 11 11 11 11 10 10 9
18 19 19 18 19 20 19 18 19 19 17 16 15 11 11 12 11 14 15 11 8 9 14 16 14 12 12 10 9 8 8 8 7 7 8 9 10 10 10 11 11 11 11 12 12 12 12 12 13 13 13 13 13 13 13 13 14 14 14 14 14 14 14 13 12 11 10 10 10 11 12 13 13 14 14 13 12 12 12 11 10 10 9 8 8 7 7
Wind_Direction
294 295 302 310 308 299 304 307 303 318 350 360 356 272 233 127 122 221 247 43 55 245 53 70 92 94 76 92 133 158 155 148 155 161 160 162 158 148 134 122 113 101 87 69 54 59 79 97 103 105 104 103 107 105 101 98 92 86 90 99 109 118 126 137 142 147 155 156 157 163 176 198 212 219 227 236 239 242 247 250 252 252 254 258 263 265 262
330 338 330 329 325 311 308 311 314 0 35 16 356 324 304 61 140 210 175 72 306 248 86 73 83 81 62 51 55 64 110 157 168 175 181 180 166 147 136 135 132 120 105 90 71 62 61 67 77 89 96 96 98 100 100 98 101 104 98 96 102 101 104 119 126 128 139 148 160 196 218 217 229 243 253 262 265 268 272 266 262 262 261 263 267 268 266
345 340 326 324 326 318 320 325 327 357 19 2 353 347 349 18 4 4 66 59 323 287 55 57 53 54 49 40 38 34 10 349 5 173 217 211 173 144 142 150 140 129 121 107 93 84 74 67 69 76 87 94 91 83 78 73 80 100 109 107 97 79 81 93 101 112 130 135 116 74 328 305 302 300 298 289 278 279 285 283 279 271 259 259 266 268 266
311 315 326 331 347 354 352 340 332 359 15 1 359 3 16 37 12 15 43 33 298 297 44 53 54 56 53 40 35 37 27 19 29 32 1 307 218 158 156 157 141 136 139 129 112 97 88 88 83 72 88 110 109 90 67 57 55 75 102 106 88 57 62 75 39 41 60 59 29 17 5 357 357 358 358 348 329 313 305 300 295 284 271 266 268 270 268
256 292 338 350 12 12 340 304 309 343 51 56 43 16 30 60 67 56 55 355 295 330 34 47 50 55 56 42 35 45 46 33 29 29 17 355 352 84 139 146 129 118 115 111 105 94 86 82 73 65 83 106 111 112 119 174 221 105 107 124 151 243 79 56 16 19 21 0 357 2 357 352 341 336 339 340 337 334 333 333 326 307 289 279 274 273 271
212 265 18 16 14 329 262 290 347 337 115 95 81 35 23 47 73 100 93 29 3 13 34 46 43 44 60 59 48 49 51 43 35 29 22 18 36 59 69 87 98 99 100 103 101 94 91 88 72 55 72 109 113 143 184 198 231 303 310 297 267 225 180 37 340 344 331 316 322 330 332 341 336 330 325 319 313 313 314 313 312 315 312 301 292 286 278
180 52 46 31 292 238 215 29 13 1 58 92 97 70 34 30 40 59 58 42 29 27 36 48 43 33 51 62 50 39 37 39 43 41 32 29 43 64 71 67 63 76 90 97 94 87 88 89 63 27 12 71 137 120 166 162 12 299 292 309 327 323 307 298 299 307 298 285 276 273 287 306 312 314 312 308 304 303 303 300 298 299 302 302 302 301 296
131 86 95 177 242 294 34 37 18 6 17 39 66 57 28 18 30 50 53 45 38 36 33 32 27 19 41 58 46 33 31 29 31 42 46 46 46 54 75 90 87 74 66 72 88 87 76 74 57 27 13 15 32 33 15 348 333 302 291 305 314 307 305 302 298 305 307 300 284 268 278 286 285 288 290 291 296 299 299 298 295 294 294 295 296 296 299
118 129 183 222 315 346 0 15 10 14 18 12 65 87 29 6 16 34 41 37 35 35 29 16 3 8 44 54 29 17 23 23 21 26 35 46 53 50 51 71 103 104 86 77 103 97 65 29 28 20 8 6 14 15 355 335 326 315 309 307 297 300 318 328 331 337 344 345 338 328 309 285 271 272 275 278 284 289 292 293 292 293 293 293 292 289 289
127 132 214 299 327 297 290 318 347 4 8 350 10 96 54 351 352 10 30 31 25 24 24 13 2 18 54 49 5 2 11 8 13 25 26 25 27 40 50 44 43 69 87 99 111 90 68 43 14 358 342 341 1 357 334 319 313 307 305 307 308 315 325 328 328 327 324 323 325 326 318 302 288 284 284 284 285 286 290 293 293 293 292 289 287 288 288
126 129 167 227 202 219 293 330 343 344 341 349 14 70 51 335 335 1 26 25 20 21 21 14 16 44 59 22 327 344 356 355 12 25 23 19 13 16 39 39 23 21 38 52 62 66 61 34 353 344 327 308 299 294 289 289 293 298 301 305 306 303 302 305 309 308 307 306 303 298 295 292 289 286 281 277 278 279 282 286 289 289 288 283 280 280 281
173 168 181 208 158 92 333 328 335 332 334 8 52 92 337 322 324 350 19 20 15 19 21 21 32 55 57 351 320 340 351 358 11 9 4 13 9 358 4 17 14 6 3 2 9 21 17 336 320 320 318 310 291 269 266 270 276 282 283 286 290 290 290 293 296 297 299 298 293 288 286 286 287 287 279 270 268 271 272 274 279 280 275 269 264 257 255
182 178 173 127 86 14 314 311 326 334 341 25 78 160 253 297 315 344 12 13 7 14 24 29 28 20 11 359 353 355 354 353 355 352 350 352 352 347 347 355 359 352 342 339 341 334 325 321 315 308 306 301 287 273 264 260 267 275 279 284 290 294 295 294 293 291 289 288 291 294 296 294 293 293 290 280 271 266 263 266 272 268 248 226 221 210 194
66 106 115 87 55 254 262 288 330 357 9 42 106 213 253 281 318 341 352 1 10 14 14 14 2 340 342 359 3 352 342 336 335 338 339 337 335 335 333 329 331 333 329 323 314 301 293 302 309 305 301 295 286 277 265 260 266 272 277 284 290 295 297 297 295 293 289 289 295 297 295 292 289 288 289 287 276 262 257 265 262 235 200 186 187 173 158
48 56 66 68 288 244 243 291 341 27 83 186 211 240 277 308 344 353 355 12 22 16 6 2 355 344 343 348 349 342 330 324 324 324 324 322 318 319 316 308 302 304 305 303 299 290 283 285 288 287 284 283 284 282 275 271 271 269 271 279 287 294 300 300 297 294 291 289 286 282 280 280 280 282 285 285 277 265 257 251 230 197 181 176 175 166 154
52 46 47 203 207 108 56 349 339 116 176 200 189 243 331 348 9 12 11 13 13 12 7 356 345 342 341 337 337 337 330 322 320 317 316 315 312 313 311 306 301 298 288 284 291 299 302 298 286 275 271 274 281 283 283 287 289 281 280 286 289 294 298 297 294 293 294 293 289 289 291 290 288 292 291 289 290 278 254 230 205 184 176 174 172 165 157
89 120 152 124 87 77 53 24 64 42 7 19 42 33 17 18 24 21 14 359 355 360 357 346 336 328 323 320 320 321 314 307 307 307 307 307 306 305 304 303 302 298 289 285 289 291 293 295 289 275 271 279 295 306 313 319 321 317 312 306 301 297 295 292 294 298 299 299 299 301 303 299 296 296 292 291 296 289 256 224 201 181 172 172 172 167 161
47 85 73 53 42 28 7 3 16 33 30 28 32 29 20 11 8 9 7 355 348 348 344 338 329 320 320 323 321 318 315 311 310 309 309 313 314 310 306 308 308 303 294 289 286 281 280 281 282 282 287 306 330 328 324 319 318 318 314 309 305 302 300 298 298 297 296 297 296 295 295 294 289 287 285 285 286 277 241 211 192 175 168 169 170 167 165
26 48 47 38 17 342 1 12 15 28 29 22 20 19 3 356 0 359 356 354 350 347 345 343 334 324 324 325 318 316 319 315 311 313 313 316 319 316 314 316 319 318 311 299 290 287 295 303 310 315 323 328 324 319 315 312 310 308 304 303 304 306 307 304 299 294 293 295 295 293 292 291 287 282 278 270 260 242 218 197 181 171 169 172 171 167 165
19 43 31 25 3 347 14 24 22 23 15 0 356 354 349 358 5 1 358 359 355 347 339 333 327 321 318 317 313 310 309 305 304 307 307 308 310 311 312 314 318 321 319 311 304 308 319 325 325 320 316 316 314 312 309 307 305 301 297 297 299 298 297 297 296 294 292 291 292 292 291 289 285 278 267 255 247 241 230 211 193 184 182 180 175 170 168
347 349 17 21 10 0 9 12 4 355 348 343 350 358 4 7 3 358 355 346 330 322 321 320 319 317 313 311 307 304 302 301 302 301 301 305 307 308 310 312 313 315 316 313 314 318 318 318 318 313 308 305 301 298 298 298 296 293 289 288 289 289 289 293 294 293 290 286 286 289 287 276 264 258 252 243 237 234 229 223 220 213 200 187 180 177 174
355 352 18 27 22 339 330 340 342 339 346 3 9 7 6 358 344 337 331 320 311 311 312 313 313 309 307 308 306 302 296 292 292 293 295 301 304 306 310 312 311 310 309 304 303 311 322 330 331 324 320 317 304 291 285 281 276 273 273 277 284 288 291 293 290 287 286 282 279 283 281 257 232 225 224 217 213 217 217 213 214 215 206 191 183 179 173
76 12 11 12 359 284 290 326 344 339 357 24 15 352 339 327 322 326 325 321 323 318 313 319 327 323 321 323 320 314 310 310 312 315 316 317 316 314 313 312 310 309 308 303 299 302 314 329 336 333 330 330 327 311 279 263 258 258 264 275 287 291 290 289 286 284 282 280 277 275 265 237 211 191 175 169 172 182 194 197 196 194 188 179 176 173 167
67 10 338 321 326 307 308 334 341 338 359 13 352 329 326 328 343 354 348 332 328 323 320 335 341 333 325 325 322 316 314 317 321 322 320 319 318 312 306 301 301 304 308 312 315 312 312 332 351 343 321 300 271 231 232 248 256 265 279 287 291 293 292 289 287 285 281 279 278 269 244 216 197 181 162 140 125 126 140 154 158 156 154 154 155 156 156
325 312 321 347 348 321 313 329 339 344 351 347 332 333 351 0 4 0 346 330 335 347 354 344 335 333 332 327 321 317 315 316 318 317 314 314 316 316 312 307 306 308 311 317 321 324 331 357 10 344 297 248 213 205 216 242 261 270 283 286 283 299 315 312 303 291 278 273 271 254 220 194 179 170 159 142 127 119 120 125 129 131 135 140 141 142 145
344 27 36 20 353 330 338 352 347 335 339 344 350 3 12 15 10 358 349 347 352 357 354 341 336 342 341 331 323 322 323 324 325 324 321 319 321 323 326 325 322 321 323 322 320 324 340 359 5 348 258 195 195 208 216 228 241 219 169 119 115 77 42 49 52 32 258 237 218 191 175 163 151 142 137 133 128 123 119 118 119 121 124 128 133 136 136
29 44 38 17 342 330 341 338 313 314 346 11 22 17 14 17 12 0 356 356 354 351 348 345 345 344 338 331 331 331 329 327 327 325 322 320 317 316 318 321 321 321 323 321 314 309 313 324 338 329 248 189 184 187 185 170 144 133 125 114 109 103 93 91 91 92 98 110 123 128 129 129 127 123 121 122 123 123 122 119 118 119 121 123 128 133 133
22 19 25 9 305 298 313 335 336 348 21 35 31 22 18 15 9 1 359 357 353 351 351 351 349 344 337 336 335 330 324 323 321 316 311 307 306 307 312 318 320 319 319 317 311 306 301 289 283 277 219 184 176 170 158 143 132 126 122 118 114 108 105 104 100 96 99 105 111 115 115 117 120 121 122 124 124 124 124 124 122 122 124 126 130 135 136
2 350 347 321 305 323 358 10 0 6 36 40 33 26 18 9 3 2 2 0 359 356 353 351 349 343 337 334 331 326 323 319 312 307 305 304 307 313 318 320 319 314 309 305 302 301 297 289 280 254 195 175 171 166 151 141 138 132 119 114 115 112 112 114 107 101 105 110 111 114 117 120 124 127 128 129 130 130 130 130 129 131 134 137 140 141 143
346 338 328 325 346 14 26 17 2 17 44 43 30 19 13 10 9 7 3 3 6 0 352 349 347 342 338 335 332 328 322 312 307 309 310 311 314 317 317 315 309 302 298 293 290 290 288 286 286 254 193 175 170 166 158 151 148 138 117 112 121 123 124 124 116 111 118 121 121 122 125 126 131 136 138 140 142 142 142 141 142 145 147 148 147 145 145
341 333 337 355 16 31 34 17 4 30 59 51 25 12 16 17 14 9 5 7 8 0 351 348 347 344 342 340 335 331 325 317 317 325 326 321 317 312 307 301 291 283 284 283 279 278 274 271 274 245 190 177 170 165 161 157 150 135 115 112 127 136 135 131 123 125 132 134 132 132 134 135 142 151 155 156 155 151 146 145 147 150 152 154 153 149 146
359 338 349 10 16 26 35 19 359 28 61 55 32 23 25 22 17 13 7 5 7 358 348 346 345 342 343 343 342 341 340 337 341 347 344 336 333 329 324 313 294 284 285 280 273 271 264 258 256 225 184 176 170 163 160 155 142 130 118 118 131 141 142 140 140 144 147 147 146 147 151 155 163 169 170 167 162 154 148 146 147 150 153 158 161 161 159
18 330 344 10 9 23 34 6 354 51 71 64 51 37 26 23 25 16 1 358 2 353 340 334 332 336 346 351 349 351 356 358 1 3 357 349 347 351 353 349 329 309 304 291 275 264 251 242 239 215 181 171 165 158 154 146 135 130 127 129 135 140 142 145 153 159 163 164 159 153 161 173 173 164 156 154 155 154 149 144 140 139 140 143 148 152 151
16 312 83 67 27 35 49 350 5 67 78 66 58 43 21 15 18 6 352 350 348 334 325 325 325 334 353 1 355 355 4 11 10 6 0 355 356 1 7 11 6 348 347 348 306 257 238 230 223 195 169 160 153 148 145 144 141 139 137 134 132 127 123 128 139 152 157 145 118 111 116 120 119 116 116 122 136 143 141 135 130 127 125 124 125 122 117
47 58 92 89 52 60 91 72 61 71 70 59 60 44 9 0 2 350 337 334 332 324 324 327 326 328 352 10 6 3 10 17 15 8 4 4 5 7 15 23 23 19 26 38 46 70 193 198 181 160 150 146 143 141 142 146 148 145 142 138 130 120 124 133 136 136 133 121 106 104 108 107 105 106 110 118 128 134 135 133 131 127 121 116 110 102 99
60 59 89 96 80 81 86 83 84 95 99 100 111 253 304 319 327 323 316 318 327 332 331 330 329 329 349 31 28 20 18 19 17 11 9 12 13 16 24 28 26 27 33 39 46 66 99 123 134 135 135 136 139 141 145 149 148 146 145 143 130 118 125 134 133 127 124 118 111 110 112 110 108 109 112 117 122 126 127 126 124 119 114 114 111 105 103
72 77 109 111 102 94 83 70 76 114 139 161 192 230 267 293 304 306 305 307 319 332 336 336 338 341 349 41 49 39 32 26 20 15 15 17 19 25 31 30 27 28 30 28 36 63 87 103 115 119 121 127 135 141 146 148 147 146 147 142 128 116 121 128 125 121 119 117 114 114 112 109 108 109 109 109 110 111 110 109 106 104 107 112 112 108 106
109 136 133 114 100 93 82 49 351 254 204 208 215 229 257 280 289 297 307 312 314 325 342 352 359 5 10 28 56 50 41 33 25 20 20 21 23 30 33 30 26 25 24 25 40 67 84 97 105 106 107 117 128 134 138 143 147 149 147 138 121 118 128 130 123 118 116 116 112 107 101 100 102 104 103 101 98 97 98 101 102 104 106 107 105 102 102
155 160 132 112 104 107 116 231 272 286 290 279 253 236 254 284 299 320 343 349 345 341 352 7 19 25 24 27 44 55 48 39 31 24 23 26 30 36 38 35 32 31 33 41 55 69 81 91 97 97 98 108 117 122 126 133 139 142 139 127 117 121 128 127 120 116 115 114 109 103 98 97 98 99 98 95 93 93 94 96 98 101 102 101 100 100 100
165 153 131 119 129 159 186 222 246 268 288 297 310 40 11 348 354 9 12 9 7 1 359 10 30 37 30 26 36 54 57 48 38 30 29 32 34 38 39 35 32 36 43 50 57 66 75 84 89 90 91 96 103 108 113 118 121 120 118 114 112 113 114 112 110 109 108 105 102 99 98 98 99 98 95 92 91 91 91 92 93 95 97 98 98 98 98
162 155 152 164 189 198 202 218 234 252 271 281 11 57 29 11 23 35 30 19 15 10 4 11 38 55 47 38 39 48 55 52 44 38 36 35 33 34 34 29 28 35 45 51 55 62 71 78 83 88 90 92 95 98 101 105 106 106 107 107 106 106 107 105 103 102 102 101 99 96 95 95 94 93 91 90 88 86 87 87 87 87 89 92 93 93 94
168 166 166 172 191 215 225 221 220 238 259 251 116 73 39 29 40 45 38 26 20 17 15 18 36 63 64 53 46 45 48 52 51 46 43 42 39 36 32 28 30 39 48 53 56 62 69 73 78 83 88 92 96 98 98 99 98 98 98 96 94 97 101 101 99 98 100 101 100 100 99 97 94 90 88 86 84 82 83 83 81 80 81 83 83 83 85
175 173 172 172 193 228 241 230 219 220 217 134 102 78 49 49 49 45 42 37 31 27 26 25 30 51 69 66 56 49 49 52 56 55 52 51 50 49 44 38 39 46 53 57 60 64 68 72 75 78 81 86 91 94 95 95 94 95 94 92 89 89 91 92 92 93 93 94 94 95 96 94 91 88 86 83 81 81 80 77 76 76 76 75 74 72 70
184 186 187 187 199 225 247 243 220 199 173 132 112 112 102 81 64 49 46 46 40 38 37 32 30 42 67 78 71 63 59 59 61 62 58 52 50 51 52 53 53 54 57 61 62 64 67 72 77 79 80 82 85 88 88 88 88 88 89 90 90 90 89 88 89 89 89 89 89 89 89 90 90 90 88 86 83 81 78 75 74 75 75 75 74 69 64
193 201 210 205 202 219 252 260 229 182 166 179 193 191 191 177 122 76 57 57 57 51 46 41 38 44 66 90 90 80 71 66 64 63 62 58 53 52 54 56 58 58 60 63 64 64 66 72 80 86 88 87 87 88 88 87 86 86 86 85 86 88 88 87 88 90 91 91 89 87 86 86 85 85 86 86 84 82 80 78 75 72 72 73 72 65 60
199 208 218 217 205 212 249 269 263 210 190 198 196 189 198 200 160 115 71 71 90 75 60 56 53 52 64 91 102 92 80 72 65 60 60 64 66 64 62 62 62 62 62 64 64 64 65 69 76 83 88 90 89 89 90 90 90 91 90 88 88 87 86 86 87 89 90 90 89 87 87 85 83 84 87 88 87 87 88 84 79 73 68 67 67 65 65
210 211 214 215 211 219 244 266 275 258 232 220 202 185 183 184 168 149 138 155 143 120 89 77 74 65 65 80 95 100 99 94 83 68 61 61 62 62 63 65 65 65 64 64 64 65 67 69 71 74 82 87 88 87 87 88 90 90 90 90 89 89 89 89 89 90 91 91 90 88 89 90 90 91 90 85 83 87 94 94 88 80 69 62 60 59 60
213 214 211 210 214 224 238 254 268 271 267 258 216 180 175 180 177 173 192 209 182 158 134 109 99 89 76 76 87 97 105 109 104 89 73 68 67 67 68 69 68 66 64 65 66 66 67 71 72 73 76 82 85 85 84 85 86 87 88 87 86 85 87 89 91 92 94 93 91 89 90 91 92 94 93 85 78 79 84 88 87 81 72 66 62 57 52
206 211 210 209 215 226 235 241 246 253 264 267 235 181 171 176 183 189 207 222 195 167 155 143 129 114 95 85 89 93 95 100 106 107 100 87 78 74 74 79 78 70 65 67 71 70 68 70 75 77 77 79 83 85 86 86 86 86 86 85 83 82 84 87 91 94 96 95 92 90 88 86 88 95 98 89 76 73 75 80 84 84 79 72 68 61 51
196 200 202 207 217 228 235 239 237 240 254 266 246 183 172 182 198 198 197 195 168 156 153 150 144 135 120 105 103 105 100 98 102 105 106 101 90 80 77 83 87 77 65 65 73 78 77 74 75 78 80 80 81 83 86 89 90 91 90 88 88 88 88 89 90 93 95 96 95 93 89 88 91 95 94 83 75 77 83 85 86 86 82 76 72 69 59
195 198 198 203 214 222 228 236 240 238 246 264 261 199 181 187 195 186 177 174 170 159 149 142 139 139 133 123 118 119 114 111 111 110 103 99 98 92 86 86 90 87 74 66 68 77 83 82 79 77 79 80 80 81 82 81 83 87 91 93 94 97 97 94 90 90 94 100 100 93 85 83 86 88 87 84 84 88 91 90 88 88 87 84 81 77 67
200 201 201 205 214 220 223 231 239 241 247 267 278 255 209 191 178 166 165 176 196 179 156 146 144 148 149 143 136 132 128 123 126 129 119 107 104 105 100 93 91 91 85 76 70 72 80 86 86 84 82 81 83 86 86 82 79 82 87 91 93 94 94 92 88 87 94 105 108 98 86 81 80 79 79 82 87 91 93 94 94 93 93 91 87 82 73